Time,TemperatureF,DewpointF,PressureIn,WindDirection,WindDirectionDegrees,WindSpeedMPH,WindSpeedGustMPH,Humidity,HourlyPrecipIn,Conditions,Clouds,dailyrainin,SoftwareType,DateUTC
2013-02-26 00:06:00,21.0,12.0,29.91,WSW,252,2.0,-999.0,69,-99.99,,,0.00,weatherlink.com 1.10,2013-02-26 07:06:00,
2013-02-26 00:21:00,21.3,12.0,29.87,WSW,252,2.0,-999.0,68,-99.99,,,0.00,weatherlink.com 1.10,2013-02-26 07:21:00,
2013-02-26 00:36:00,22.5,14.0,29.85,WSW,252,0.0,-999.0,69,-99.99,,,0.00,weatherlink.com 1.10,2013-02-26 07:36:00,
2013-02-26 00:51:00,23.5,13.0,29.84,WSW,252,0.0,-999.0,64,-99.99,,,0.00,weatherlink.com 1.10,2013-02-26 07:51:00,
2013-02-26 01:06:00,21.6,12.0,29.85,WSW,252,0.0,-999.0,67,-99.99,,,0.00,weatherlink.com 1.10,2013-02-26 08:06:00,
2013-02-26 01:21:00,20.3,12.0,29.88,WSW,252,2.0,-999.0,69,-99.99,,,0.00,weatherlink.com 1.10,2013-02-26 08:21:00,
2013-02-26 01:36:00,19.4,11.0,29.87,WSW,252,1.0,-999.0,70,-99.99,,,0.00,weatherlink.com 1.10,2013-02-26 08:36:00,
2013-02-26 01:51:00,18.8,11.0,29.88,WSW,252,0.0,-999.0,71,-99.99,,,0.00,weatherlink.com 1.10,2013-02-26 08:51:00,
2013-02-26 02:06:00,18.3,11.0,29.88,WSW,252,0.0,-999.0,72,-99.99,,,0.00,weatherlink.com 1.10,2013-02-26 09:06:00,
2013-02-26 02:21:00,17.8,10.0,29.86,WSW,252,3.0,-999.0,72,-99.99,,,0.00,weatherlink.com 1.10,2013-02-26 09:21:00,
2013-02-26 02:36:00,17.7,10.0,29.85,WSW,252,2.0,-999.0,73,-99.99,,,0.00,weatherlink.com 1.10,2013-02-26 09:36:00,
2013-02-26 02:51:00,17.5,11.0,29.85,WSW,252,2.0,-999.0,74,-99.99,,,0.00,weatherlink.com 1.10,2013-02-26 09:51:00,
2013-02-26 03:06:00,16.2,10.0,29.86,WSW,252,0.0,-999.0,75,-99.99,,,0.00,weatherlink.com 1.10,2013-02-26 10:06:00,
2013-02-26 03:21:00,16.4,10.0,29.87,WSW,252,3.0,-999.0,77,-99.99,,,0.00,weatherlink.com 1.10,2013-02-26 10:21:00,
2013-02-26 03:36:00,17.2,11.0,29.85,WSW,252,2.0,-999.0,77,-99.99,,,0.00,weatherlink.com 1.10,2013-02-26 10:36:00,
2013-02-26 03:51:00,16.1,10.0,29.86,WSW,252,3.0,-999.0,76,-99.99,,,0.00,weatherlink.com 1.10,2013-02-26 10:51:00,
2013-02-26 04:06:00,16.4,10.0,29.85,WSW,252,1.0,-999.0,77,-99.99,,,0.00,weatherlink.com 1.10,2013-02-26 11:06:00,
2013-02-26 04:21:00,16.2,10.0,29.85,WSW,252,0.0,-999.0,76,-99.99,,,0.00,weatherlink.com 1.10,2013-02-26 11:21:00,
2013-02-26 04:36:00,16.1,10.0,29.85,WSW,252,2.0,-999.0,77,-99.99,,,0.00,weatherlink.com 1.10,2013-02-26 11:36:00,
2013-02-26 04:51:00,15.9,10.0,29.85,WSW,252,0.0,-999.0,78,-99.99,,,0.00,weatherlink.com 1.10,2013-02-26 11:51:00,
2013-02-26 05:06:00,17.0,11.0,29.85,WSW,252,0.0,-999.0,78,-99.99,,,0.00,weatherlink.com 1.10,2013-02-26 12:06:00,
2013-02-26 05:21:00,16.5,9.0,29.88,WSW,252,1.0,-999.0,73,-99.99,,,0.00,weatherlink.com 1.10,2013-02-26 12:21:00,
2013-02-26 05:36:00,15.7,9.0,29.87,WSW,252,1.0,-999.0,76,-99.99,,,0.00,weatherlink.com 1.10,2013-02-26 12:36:00,
2013-02-26 05:51:00,13.8,8.0,29.89,WSW,252,2.0,-999.0,77,-99.99,,,0.00,weatherlink.com 1.10,2013-02-26 12:51:00,
2013-02-26 06:06:00,13.6,8.0,29.89,WSW,252,0.0,-999.0,79,-99.99,,,0.00,weatherlink.com 1.10,2013-02-26 13:06:00,
2013-02-26 06:21:00,13.8,8.0,29.92,WSW,252,2.0,-999.0,79,-99.99,,,0.00,weatherlink.com 1.10,2013-02-26 13:21:00,
2013-02-26 06:36:00,14.3,9.0,29.91,WSW,252,0.0,-999.0,80,-99.99,,,0.00,weatherlink.com 1.10,2013-02-26 13:36:00,
2013-02-26 06:51:00,13.6,8.0,29.92,WSW,252,3.0,-999.0,79,-99.99,,,0.00,weatherlink.com 1.10,2013-02-26 13:51:00,
2013-02-26 07:06:00,14.6,10.0,29.91,WSW,252,0.0,-999.0,80,-99.99,,,0.00,weatherlink.com 1.10,2013-02-26 14:06:00,
2013-02-26 07:21:00,16.4,11.0,29.93,WSW,252,3.0,-999.0,80,-99.99,,,0.00,weatherlink.com 1.10,2013-02-26 14:21:00,
2013-02-26 07:36:00,18.1,12.0,29.91,WSW,252,0.0,-999.0,76,-99.99,,,0.00,weatherlink.com 1.10,2013-02-26 14:36:00,
2013-02-26 07:52:00,20.2,14.0,29.90,WSW,252,0.0,-999.0,76,-99.99,,,0.00,weatherlink.com 1.10,2013-02-26 14:52:00,
2013-02-26 08:07:00,23.0,15.0,29.89,WSW,252,3.0,-999.0,72,-99.99,,,0.00,weatherlink.com 1.10,2013-02-26 15:07:00,
2013-02-26 08:22:00,25.1,16.0,29.91,WSW,252,0.0,-999.0,69,-99.99,,,0.00,weatherlink.com 1.10,2013-02-26 15:22:00,
2013-02-26 08:37:00,27.8,16.0,29.90,WSW,252,0.0,-999.0,62,-99.99,,,0.00,weatherlink.com 1.10,2013-02-26 15:37:00,
2013-02-26 08:52:00,31.2,17.0,29.87,WNW,300,3.0,-999.0,55,-99.99,,,0.00,weatherlink.com 1.10,2013-02-26 15:52:00,
2013-02-26 09:22:00,33.7,15.0,29.88,WNW,298,12.0,-999.0,47,-99.99,,,0.00,weatherlink.com 1.10,2013-02-26 16:22:00,
2013-02-26 09:37:00,33.5,15.0,29.87,NW,307,6.0,-999.0,47,-99.99,,,0.00,weatherlink.com 1.10,2013-02-26 16:37:00,
2013-02-26 09:52:00,34.3,13.0,29.87,NW,304,9.0,-999.0,42,-99.99,,,0.00,weatherlink.com 1.10,2013-02-26 16:52:00,
2013-02-26 10:06:00,34.0,10.0,29.88,NW,319,15.0,-999.0,37,-99.99,,,0.00,weatherlink.com 1.10,2013-02-26 17:06:00,
2013-02-26 10:21:00,34.6,9.0,29.89,West,276,18.0,-999.0,34,-99.99,,,0.00,weatherlink.com 1.10,2013-02-26 17:21:00,
2013-02-26 10:51:00,35.0,4.0,29.90,NW,322,9.0,-999.0,27,-99.99,,,0.00,weatherlink.com 1.10,2013-02-26 17:51:00,
2013-02-26 11:06:00,34.6,3.0,29.90,WNW,294,14.0,-999.0,26,-99.99,,,0.00,weatherlink.com 1.10,2013-02-26 18:06:00,
2013-02-26 11:21:00,35.3,4.0,29.92,West,269,20.0,-999.0,27,-99.99,,,0.00,weatherlink.com 1.10,2013-02-26 18:21:00,
2013-02-26 11:36:00,35.5,3.0,29.92,WNW,290,20.0,-999.0,25,-99.99,,,0.00,weatherlink.com 1.10,2013-02-26 18:36:00,
2013-02-26 11:51:00,34.6,4.0,29.92,NW,310,9.0,-999.0,28,-99.99,,,0.00,weatherlink.com 1.10,2013-02-26 18:51:00,
2013-02-26 12:06:00,33.4,6.0,29.93,West,281,10.0,-999.0,32,-99.99,,,0.00,weatherlink.com 1.10,2013-02-26 19:06:00,
2013-02-26 12:21:00,30.6,10.0,29.96,West,276,11.0,-999.0,43,-99.99,,,0.00,weatherlink.com 1.10,2013-02-26 19:21:00,
2013-02-26 12:36:00,30.1,7.0,29.95,West,262,10.0,-999.0,38,-99.99,,,0.00,weatherlink.com 1.10,2013-02-26 19:36:00,
2013-02-26 12:51:00,33.5,6.0,29.92,West,265,13.0,-999.0,32,-99.99,,,0.00,weatherlink.com 1.10,2013-02-26 19:51:00,
2013-02-26 13:06:00,36.0,5.0,29.89,West,271,18.0,-999.0,27,-99.99,,,0.00,weatherlink.com 1.10,2013-02-26 20:06:00,
2013-02-26 13:21:00,36.5,4.0,29.91,West,273,18.0,-999.0,25,-99.99,,,0.00,weatherlink.com 1.10,2013-02-26 20:21:00,
2013-02-26 13:37:00,36.8,-1.0,29.90,NW,305,9.0,-999.0,20,-99.99,,,0.00,weatherlink.com 1.10,2013-02-26 20:37:00,
2013-02-26 13:52:00,37.0,2.0,29.92,WNW,290,14.0,-999.0,23,-99.99,,,0.00,weatherlink.com 1.10,2013-02-26 20:52:00,
2013-02-26 14:07:00,36.3,0.0,29.93,WNW,300,16.0,-999.0,21,-99.99,,,0.00,weatherlink.com 1.10,2013-02-26 21:07:00,
2013-02-26 14:22:00,36.5,1.0,29.93,WNW,302,8.0,-999.0,22,-99.99,,,0.00,weatherlink.com 1.10,2013-02-26 21:22:00,
2013-02-26 14:37:00,37.0,0.0,29.93,West,276,18.0,-999.0,21,-99.99,,,0.00,weatherlink.com 1.10,2013-02-26 21:37:00,
2013-02-26 14:52:00,37.0,1.0,29.94,NW,326,8.0,-999.0,22,-99.99,,,0.00,weatherlink.com 1.10,2013-02-26 21:52:00,
2013-02-26 15:07:00,37.2,-3.0,29.94,WNW,292,13.0,-999.0,18,-99.99,,,0.00,weatherlink.com 1.10,2013-02-26 22:07:00,
2013-02-26 15:22:00,36.6,3.0,29.96,West,281,15.0,-999.0,24,-99.99,,,0.00,weatherlink.com 1.10,2013-02-26 22:22:00,
2013-02-26 15:37:00,34.3,6.0,29.99,NW,309,9.0,-999.0,31,-99.99,,,0.00,weatherlink.com 1.10,2013-02-26 22:37:00,
2013-02-26 15:52:00,34.9,5.0,30.00,WNW,286,12.0,-999.0,28,-99.99,,,0.00,weatherlink.com 1.10,2013-02-26 22:52:00,
2013-02-26 16:07:00,35.6,5.0,29.98,NNW,328,12.0,-999.0,27,-99.99,,,0.00,weatherlink.com 1.10,2013-02-26 23:07:00,
2013-02-26 16:22:00,34.7,5.0,29.98,WNW,287,12.0,-999.0,29,-99.99,,,0.00,weatherlink.com 1.10,2013-02-26 23:22:00,
2013-02-26 16:37:00,33.2,5.0,30.00,NNW,333,4.0,-999.0,31,-99.99,,,0.00,weatherlink.com 1.10,2013-02-26 23:37:00,
2013-02-26 16:54:00,32.5,8.0,30.01,NW,323,7.0,-999.0,36,-99.99,,,0.00,weatherlink.com 1.10,2013-02-26 23:54:00,
2013-02-26 17:08:00,31.8,9.0,30.02,WNW,284,6.0,-999.0,39,-99.99,,,0.00,weatherlink.com 1.10,2013-02-27 00:08:00,
2013-02-26 17:24:00,32.8,10.0,30.04,WNW,298,11.0,-999.0,38,-99.99,,,0.00,weatherlink.com 1.10,2013-02-27 00:24:00,
2013-02-26 17:39:00,32.4,9.0,30.04,WNW,285,9.0,-999.0,38,-99.99,,,0.00,weatherlink.com 1.10,2013-02-27 00:39:00,
2013-02-26 17:54:00,31.3,11.0,30.05,WNW,292,10.0,-999.0,42,-99.99,,,0.00,weatherlink.com 1.10,2013-02-27 00:54:00,
2013-02-26 18:10:00,30.7,10.0,30.07,WNW,300,12.0,-999.0,43,-99.99,,,0.00,weatherlink.com 1.10,2013-02-27 01:10:00,
2013-02-26 18:24:00,30.3,10.0,30.07,West,268,17.0,-999.0,43,-99.99,,,0.00,weatherlink.com 1.10,2013-02-27 01:24:00,
2013-02-26 18:39:00,30.3,10.0,30.09,West,281,6.0,-999.0,42,-99.99,,,0.00,weatherlink.com 1.10,2013-02-27 01:39:00,
2013-02-26 18:54:00,30.0,9.0,30.09,WNW,286,2.0,-999.0,42,-99.99,,,0.00,weatherlink.com 1.10,2013-02-27 01:54:00,
2013-02-26 19:10:00,29.7,10.0,30.10,WNW,297,4.0,-999.0,43,-99.99,,,0.00,weatherlink.com 1.10,2013-02-27 02:10:00,
2013-02-26 19:40:00,28.5,9.0,30.06,WNW,288,2.0,-999.0,44,-99.99,,,0.00,weatherlink.com 1.10,2013-02-27 02:40:00,
2013-02-26 19:55:00,29.0,8.0,30.07,West,265,5.0,-999.0,42,-99.99,,,0.00,weatherlink.com 1.10,2013-02-27 02:55:00,
2013-02-26 20:10:00,29.1,8.0,30.07,WSW,240,0.0,-999.0,41,-99.99,,,0.00,weatherlink.com 1.10,2013-02-27 03:10:00,
2013-02-26 20:25:00,29.4,8.0,30.01,West,274,5.0,-999.0,40,-99.99,,,0.00,weatherlink.com 1.10,2013-02-27 03:25:00,
2013-02-26 20:40:00,29.7,7.0,30.01,West,278,18.0,-999.0,39,-99.99,,,0.00,weatherlink.com 1.10,2013-02-27 03:40:00,
2013-02-26 20:55:00,29.5,7.0,30.01,West,281,11.0,-999.0,39,-99.99,,,0.00,weatherlink.com 1.10,2013-02-27 03:55:00,
2013-02-26 21:10:00,29.4,8.0,30.01,WNW,290,4.0,-999.0,40,-99.99,,,0.00,weatherlink.com 1.10,2013-02-27 04:10:00,
2013-02-26 21:25:00,28.7,8.0,30.03,NW,304,2.0,-999.0,41,-99.99,,,0.00,weatherlink.com 1.10,2013-02-27 04:25:00,
2013-02-26 21:40:00,27.8,8.0,30.04,NW,304,3.0,-999.0,43,-99.99,,,0.00,weatherlink.com 1.10,2013-02-27 04:40:00,
2013-02-26 21:55:00,27.8,8.0,30.03,WNW,303,2.0,-999.0,43,-99.99,,,0.00,weatherlink.com 1.10,2013-02-27 04:55:00,
2013-02-26 22:10:00,27.2,7.0,30.04,WNW,303,0.0,-999.0,43,-99.99,,,0.00,weatherlink.com 1.10,2013-02-27 05:10:00,
2013-02-26 22:26:00,26.4,8.0,30.04,WNW,303,0.0,-999.0,45,-99.99,,,0.00,weatherlink.com 1.10,2013-02-27 05:26:00,
2013-02-26 22:41:00,25.3,8.0,30.06,WNW,303,0.0,-999.0,47,-99.99,,,0.00,weatherlink.com 1.10,2013-02-27 05:41:00,
2013-02-26 22:56:00,24.7,7.0,30.07,WNW,303,0.0,-999.0,48,-99.99,,,0.00,weatherlink.com 1.10,2013-02-27 05:56:00,
2013-02-26 23:11:00,24.8,8.0,30.07,WNW,303,2.0,-999.0,48,-99.99,,,0.00,weatherlink.com 1.10,2013-02-27 06:11:00,
2013-02-26 23:26:00,23.9,7.0,30.09,WNW,303,0.0,-999.0,49,-99.99,,,0.00,weatherlink.com 1.10,2013-02-27 06:26:00,
2013-02-26 23:41:00,23.8,7.0,30.09,WNW,303,0.0,-999.0,49,-99.99,,,0.00,weatherlink.com 1.10,2013-02-27 06:41:00,
2013-02-26 23:56:00,21.6,6.0,30.11,WNW,303,2.0,-999.0,52,-99.99,,,0.00,weatherlink.com 1.10,2013-02-27 06:56:00,